Weather History for Santa Maria, CA

Change the Weather History Date:

Monday, June 17, 2013

  Actual Average Record
Temperature  
Mean Temperature 60 °F 61 °F  
Max Temperature 68 °F 71 °F 103 °F (1917)
Min Temperature 52 °F 51 °F 37 °F (1918)
Degree Days  
Heating Degree Days 5 5  
Month to date heating degree days 37 93  
Since 1 June heating degree days 37 93  
Since 1 July heating degree days 2347 2775  
Cooling Degree Days 0 0  
Month to date cooling degree days 3 0  
Year to date cooling degree days 14 10  
Since 1 June cooling degree days 3 0  
Growing Degree Days 10 (Base 50)    
Moisture  
Dew Point 52 °F    
Average Humidity 74    
Maximum Humidity 93    
Minimum Humidity 55    
Precipitation  
Precipitation 0.00 in 0.00 in 0.13 in (1967)
Month to date precipitation T 0.03  
Year to date precipitation 2.49 9.70  
Since 1 July precipitation 6.22 13.94  
Sea Level Pressure  
Sea Level Pressure 30.02 in    
Wind  
Wind Speed 12 mph (WNW)    
Max Wind Speed 28 mph    
Max Gust Speed 32 mph    
Visibility 8 miles    
Events      
T = Trace of Precipitation, MM = Missing Value Source: NWS Daily Summary

Daily Weather History Graph

Daily Weather History Graph

Search for Another Location

Airport:

Trip Planner

Search our weather history database for the weather conditions in past years. The results will help you decide how hot, cold, wet, or windy it might be!

Date:

Astronomy

Jun. 17, 2013 Rise Set
Actual Time 5:47 AM PDT 8:17 PM PDT
Civil Twilight 5:18 AM PDT 8:47 PM PDT
Nautical Twilight 4:41 AM PDT 9:24 PM PDT
Astronomical Twilight 4:01 AM PDT 10:04 PM PDT
Moon 2:13 PM PDT (6/17) 1:13 AM PDT (6/17)
Length of Visible Light 15h 29m
Length of Day
14h 29m
First Quarter, 61% of the Moon is Illuminated
Jun 17
First Quarter
Jun 23
Full
Jun 29
Last Quarter
Jul 8
New
Jul 15
First Quarter

Hourly Weather History & Observations

Time (PDT) Temp. Dew Point Humidity Pressure Visibility Wind Dir Wind Speed Gust Speed Precip Events Conditions
12:51 AM 55.0 °F 48.9 °F 80% 30.02 in 8.0 mi Calm Calm - N/A   Clear
1:51 AM 55.9 °F 50.0 °F 80% 30.02 in 8.0 mi Calm Calm - N/A   Clear
2:51 AM 54.0 °F 50.0 °F 86% 30.02 in 7.0 mi NW 6.9 mph - N/A   Clear
3:51 AM 53.1 °F 50.0 °F 89% 30.02 in 7.0 mi Calm Calm - N/A   Clear
4:51 AM 53.1 °F 50.0 °F 89% 30.02 in 7.0 mi NW 9.2 mph - N/A   Clear
5:51 AM 53.1 °F 50.0 °F 89% 30.03 in 6.0 mi NNW 8.1 mph - N/A   Clear
6:51 AM 55.0 °F 52.0 °F 89% 30.04 in 5.0 mi NW 8.1 mph - N/A   Clear
7:19 AM 55.4 °F 51.8 °F 88% 30.03 in 5.0 mi NW 9.2 mph - N/A   Scattered Clouds
7:51 AM 55.9 °F 53.1 °F 90% 30.04 in 5.0 mi NW 8.1 mph - N/A   Scattered Clouds
8:51 AM 60.1 °F 52.0 °F 75% 30.05 in 8.0 mi WNW 10.4 mph - N/A   Clear
9:51 AM 63.0 °F 52.0 °F 67% 30.04 in 9.0 mi WNW 11.5 mph - N/A   Clear
10:51 AM 66.0 °F 52.0 °F 60% 30.03 in 9.0 mi NW 12.7 mph - N/A   Clear
11:51 AM 66.0 °F 51.1 °F 59% 30.04 in 8.0 mi NW 19.6 mph - N/A   Clear
12:51 PM 68.0 °F 51.1 °F 55% 30.03 in 9.0 mi NW 21.9 mph 27.6 mph N/A   Clear
1:51 PM 66.9 °F 52.0 °F 59% 30.02 in 9.0 mi NW 20.7 mph 31.1 mph N/A   Clear
2:51 PM 66.9 °F 53.1 °F 61% 30.02 in 9.0 mi WNW 19.6 mph 26.5 mph N/A   Clear
3:51 PM 66.0 °F 53.1 °F 63% 30.01 in 8.0 mi WNW 20.7 mph - N/A   Clear
4:51 PM 66.0 °F 53.1 °F 63% 30.00 in 8.0 mi NW 23.0 mph 28.8 mph N/A   Clear
5:51 PM 64.0 °F 53.1 °F 67% 29.99 in 8.0 mi WNW 21.9 mph 28.8 mph N/A   Clear
6:51 PM 61.0 °F 52.0 °F 72% 29.99 in 8.0 mi WNW 21.9 mph 26.5 mph N/A   Clear
7:51 PM 57.9 °F 52.0 °F 81% 29.99 in 8.0 mi WNW 12.7 mph 21.9 mph N/A   Clear
8:48 PM 55.4 °F 51.8 °F 88% 30.00 in 8.0 mi Variable 5.8 mph - N/A   Partly Cloudy
8:51 PM 55.9 °F 52.0 °F 87% 30.01 in 8.0 mi Variable 3.5 mph - N/A   Scattered Clouds
9:51 PM 55.0 °F 52.0 °F 89% 30.01 in 8.0 mi WNW 11.5 mph - N/A   Clear
10:51 PM 54.0 °F 51.1 °F 90% 30.02 in 7.0 mi West 5.8 mph - N/A   Clear
11:51 PM 53.1 °F 51.1 °F 93% 30.01 in 6.0 mi Calm Calm - N/A   Clear